KD8BMB Weather Reports


time (UTC)temp
C
wind
direction
speed
KPH
gust
KPH
rain 1hr
cm
rain 24hr
cm
rain mn
cm
humidity
%
barometer
mb
20260505064552 16 229 1.6 1.6 0.00 0.00 0.00 80 998.6
20260505064051 16 214 3.2 3.2 0.00 0.00 0.00 80 998.5
20260505063548 16 258 4.8 8.0 0.00 0.00 0.00 80 998.7
20260505063043 16 300 4.8 8.0 0.00 0.00 0.00 81 998.8
20260505062540 16 274 3.2 4.8 0.00 0.00 0.00 80 998.7
20260505062037 16 197 3.2 3.2 0.00 0.00 0.00 79 998.6
20260505061535 16 137 1.6 1.6 0.00 0.00 0.00 78 998.6
20260505061033 16 212 3.2 8.0 0.00 0.00 0.00 78 998.6
20260505060530 16 206 3.2 4.8 0.00 0.00 0.00 77 998.8
20260505060026 16 218 4.8 4.8 0.00 0.00 0.00 77 998.9
20260505055522 17 308 1.6 1.6 0.00 0.00 0.00 76 998.7
20260505055019 17 294 0.0 1.6 0.00 0.00 0.00 77 998.7
20260505054516 17 229 3.2 4.8 0.00 0.00 0.00 77 998.7
20260505054014 17 166 3.2 3.2 0.00 0.00 0.00 75 998.6
20260505053511 17 200 6.4 9.7 0.00 0.00 0.00 75 998.4
20260505053008 17 222 9.7 14.5 0.00 0.00 0.00 73 998.4
20260505052505 17 28 4.8 8.0 0.00 0.00 0.00 75 998.4
20260505052002 18 254 4.8 8.0 0.00 0.00 0.00 73 998.4
20260505051458 18 236 4.8 4.8 0.00 0.00 0.00 66 998.4
20260505050957 19 227 4.8 4.8 0.00 0.00 0.00 64 998.5
20260505050455 19 241 6.4 9.7 0.00 0.00 0.00 63 998.3
20260505041422 19 253 1.6 3.2 0.00 0.00 0.00 67 997.5
20260505040920 19 235 1.6 1.6 0.00 0.00 0.00 67 997.6
20260505040417 20 211 6.4 8.0 0.00 0.00 0.00 67 997.7
20260505035913 20 278 6.4 8.0 0.00 0.00 0.00 67 997.5
20260505035410 19 269 4.8 8.0 0.00 0.00 0.00 67 997.7
20260505034907 20 233 8.0 9.7 0.00 0.00 0.00 67 997.7
20260505034403 19 303 0.0 0.0 0.00 0.00 0.00 67 997.7
20260505033901 19 191 8.0 9.7 0.00 0.00 0.00 68 997.5
20260505033357 19 238 11.3 17.7 0.00 0.00 0.00 67 997.4
20260505032856 19 277 4.8 8.0 0.00 0.00 0.00 68 997.4
20260505032352 19 206 11.3 14.5 0.00 0.00 0.00 68 997.5
20260505031849 19 246 4.8 8.0 0.00 0.00 0.00 68 997.3
20260505031346 19 211 1.6 3.2 0.00 0.00 0.00 68 997.1
20260505030843 19 205 1.6 3.2 0.00 0.00 0.00 68 997.1
20260505030338 19 253 3.2 4.8 0.00 0.00 0.00 67 997.3
20260505025834 19 279 4.8 9.7 0.00 0.00 0.00 68 997.2
20260505025332 19 215 1.6 1.6 0.00 0.00 0.00 67 997.2
20260505024830 19 286 3.2 8.0 0.00 0.00 0.00 67 997.5
20260505024328 20 187 6.4 8.0 0.00 0.00 0.00 66 997.7
20260505023825 19 195 4.8 8.0 0.00 0.00 0.00 67 997.7
20260505023321 19 252 3.2 4.8 0.00 0.00 0.00 66 997.6
20260505022819 19 320 8.0 11.3 0.00 0.00 0.00 67 997.7
20260505022315 19 228 3.2 3.2 0.00 0.00 0.00 66 997.6
20260505021813 20 193 1.6 3.2 0.00 0.00 0.00 65 997.4
20260505021310 20 264 6.4 11.3 0.00 0.00 0.00 65 997.5
20260505020805 20 89 4.8 4.8 0.00 0.00 0.00 64 997.6
20260505020301 19 355 8.0 11.3 0.00 0.00 0.00 64 997.5
20260505015758 20 240 4.8 8.0 0.00 0.00 0.00 64 997.5
20260505015255 20 150 1.6 1.6 0.00 0.00 0.00 64 997.5
20260505014752 20 165 6.4 8.0 0.00 0.00 0.00 63 997.3
20260505014250 20 43 1.6 3.2 0.00 0.00 0.00 63 997.3
20260505013746 20 137 3.2 3.2 0.00 0.00 0.00 61 997.5
20260505013243 19 170 4.8 4.8 0.00 0.00 0.00 60 997.3
20260505012741 18 127 0.0 0.0 0.00 0.00 0.00 56 997.3
20260505012238 18 265 0.0 0.0 0.00 0.00 0.00 55 997.1
20260505011734 18 327 0.0 0.0 0.00 0.00 0.00 55 997.2
20260505011231 18 318 0.0 0.0 0.00 0.00 0.00 54 996.9
20260505010727 18 348 0.0 0.0 0.00 0.00 0.00 54 996.8
20260505010223 19 296 0.0 0.0 0.00 0.00 0.00 51 996.9
20260505005720 20 274 0.0 0.0 0.00 0.00 0.00 51 997.0
20260505005217 20 306 0.0 0.0 0.00 0.00 0.00 50 996.8
20260505004714 20 329 0.0 0.0 0.00 0.00 0.00 49 997.0
20260505004211 20 292 0.0 0.0 0.00 0.00 0.00 48 997.0
20260505003708 21 294 0.0 0.0 0.00 0.00 0.00 47 996.8
20260505003206 21 243 0.0 0.0 0.00 0.00 0.00 44 997.1
20260505002702 21 269 0.0 0.0 0.00 0.00 0.00 44 997.0
20260505002159 22 222 0.0 0.0 0.00 0.00 0.00 44 997.1
20260505001656 22 281 0.0 1.6 0.00 0.00 0.00 43 996.9
20260505001154 22 289 4.8 8.0 0.00 0.00 0.00 42 997.0
20260505000651 22 269 1.6 3.2 0.00 0.00 0.00 42 997.1
20260505000149 22 293 4.8 8.0 0.00 0.00 0.00 42 997.1
20260504235644 22 258 3.2 3.2 0.00 0.00 0.00 44 997.3
20260504235141 22 283 1.6 3.2 0.00 0.00 0.00 44 997.1
20260504234639 22 242 3.2 3.2 0.00 0.00 0.00 44 997.1
20260504234136 23 268 6.4 8.0 0.00 0.00 0.00 44 997.2
20260504233631 23 205 4.8 8.0 0.00 0.00 0.00 43 997.0
20260504233127 23 243 9.7 12.9 0.00 0.00 0.00 41 997.1
20260504232626 23 225 6.4 8.0 0.00 0.00 0.00 42 997.2
20260504232122 23 276 6.4 8.0 0.00 0.00 0.00 42 997.5
20260504231619 23 246 11.3 16.1 0.00 0.00 0.00 42 997.2
20260504231115 23 272 4.8 8.0 0.00 0.00 0.00 44 997.4
20260504230611 24 237 1.6 1.6 0.00 0.00 0.00 43 997.3
20260504230110 24 275 6.4 9.7 0.00 0.00 0.00 42 997.3
20260504225608 24 296 16.1 17.7 0.00 0.00 0.00 41 997.4
20260504225104 24 253 11.3 16.1 0.00 0.00 0.00 40 997.3
20260504224601 24 225 4.8 4.8 0.00 0.00 0.00 39 997.5
20260504224058 24 263 1.6 3.2 0.00 0.00 0.00 40 997.7
20260504223555 25 255 6.4 9.7 0.00 0.00 0.00 38 997.6
20260504223050 25 298 3.2 3.2 0.00 0.00 0.00 39 997.7
20260504222547 25 243 8.0 9.7 0.00 0.00 0.00 38 997.7
20260504222045 24 267 1.6 3.2 0.00 0.00 0.00 37 997.9
20260504221542 24 188 16.1 24.1 0.00 0.00 0.00 37 997.8
20260504221039 24 357 11.3 12.9 0.00 0.00 0.00 36 998.1
20260504220535 25 249 1.6 4.8 0.00 0.00 0.00 39 998.1
20260504220032 25 256 3.2 3.2 0.00 0.00 0.00 37 998.1
20260504215529 24 245 6.4 12.9 0.00 0.00 0.00 37 998.3
20260504215026 24 226 11.3 14.5 0.00 0.00 0.00 37 998.1
20260504214522 25 309 6.4 11.3 0.00 0.00 0.00 36 998.3
20260504214018 25 129 3.2 4.8 0.00 0.00 0.00 36 998.2
20260504213515 25 132 8.0 12.9 0.00 0.00 0.00 35 998.3
20260504213013 25 259 1.6 1.6 0.00 0.00 0.00 35 998.3
20260504212508 25 232 3.2 8.0 0.00 0.00 0.00 34 998.3
20260504212006 24 227 3.2 4.8 0.00 0.00 0.00 35 998.4
20260504211502 23 193 1.6 3.2 0.00 0.00 0.00 36 998.6
20260504211000 23 208 8.0 12.9 0.00 0.00 0.00 35 998.5
20260504210456 23 282 6.4 9.7 0.00 0.00 0.00 35 998.7
20260504205953 23 217 0.0 1.6 0.00 0.00 0.00 36 998.6
20260504205451 24 217 6.4 9.7 0.00 0.00 0.00 33 998.7
20260504204949 24 281 3.2 8.0 0.00 0.00 0.00 33 998.4
20260504204447 24 297 17.7 20.9 0.00 0.00 0.00 33 998.8
20260504203946 24 257 4.8 4.8 0.00 0.00 0.00 33 998.4
20260504203443 24 299 0.0 1.6 0.00 0.00 0.00 34 998.5
20260504202939 25 289 17.7 25.7 0.00 0.00 0.00 31 998.5
20260504202436 25 211 1.6 3.2 0.00 0.00 0.00 31 998.6
20260504201932 25 243 6.4 9.7 0.00 0.00 0.00 31 998.6
20260504201430 24 238 8.0 12.9 0.00 0.00 0.00 31 998.5
20260504200927 25 219 8.0 12.9 0.00 0.00 0.00 32 998.6
20260504200424 24 283 16.1 22.5 0.00 0.00 0.00 31 998.8
20260504195921 24 280 0.0 1.6 0.00 0.00 0.00 32 998.9
20260504195416 24 140 16.1 22.5 0.00 0.00 0.00 30 998.7
20260504194913 24 220 6.4 9.7 0.00 0.00 0.00 32 999.0
20260504194409 24 274 1.6 4.8 0.00 0.00 0.00 31 999.1
20260504193905 23 293 4.8 8.0 0.00 0.00 0.00 32 998.9
20260504193403 24 231 9.7 12.9 0.00 0.00 0.00 31 999.6
20260504192901 24 245 19.3 22.5 0.00 0.00 0.00 30 999.0
20260504192358 24 311 8.0 14.5 0.00 0.00 0.00 31 999.1
20260504191857 24 320 17.7 24.1 0.00 0.00 0.00 30 999.4
20260504191354 24 303 6.4 12.9 0.00 0.00 0.00 31 999.2
20260504190849 24 294 9.7 16.1 0.00 0.00 0.00 31 999.4
20260504190346 24 226 4.8 12.9 0.00 0.00 0.00 31 999.4
20260504185842 24 240 8.0 11.3 0.00 0.00 0.00 31 999.4
20260504185339 24 237 8.0 11.3 0.00 0.00 0.00 32 999.5
20260504184835 25 317 0.0 0.0 0.00 0.00 0.00 32 999.6
20260504184332 25 188 4.8 8.0 0.00 0.00 0.00 32 999.5
20260504183827 24 215 1.6 8.0 0.00 0.00 0.00 32 999.7
20260504183325 23 187 12.9 17.7 0.00 0.00 0.00 32 1000.0
20260504182822 24 302 9.7 12.9 0.00 0.00 0.00 31 999.9
20260504182320 23 237 11.3 17.7 0.00 0.00 0.00 31 999.8
20260504181817 23 210 20.9 27.4 0.00 0.00 0.00 31 999.7
20260504181314 23 257 8.0 22.5 0.00 0.00 0.00 32 999.8
20260504180812 23 256 9.7 14.5 0.00 0.00 0.00 34 1000.3
20260504180305 23 260 4.8 9.7 0.00 0.00 0.00 34 1000.2
20260504175803 23 306 11.3 14.5 0.00 0.00 0.00 33 1000.1
20260504175259 23 254 11.3 16.1 0.00 0.00 0.00 33 1000.3
20260504174758 23 216 12.9 16.1 0.00 0.00 0.00 32 1000.1
20260504174255 23 279 16.1 20.9 0.00 0.00 0.00 33 1000.3
20260504173751 23 201 14.5 24.1 0.00 0.00 0.00 33 1000.4
20260504173248 23 247 3.2 4.8 0.00 0.00 0.00 33 1000.6
20260504172745 23 226 8.0 11.3 0.00 0.00 0.00 33 1000.6
20260504172242 23 70 0.0 0.0 0.00 0.00 0.00 34 1000.4
20260504171738 23 165 4.8 8.0 0.00 0.00 0.00 36 1000.8
20260504171235 23 252 11.3 16.1 0.00 0.00 0.00 34 1000.8
20260504170732 23 206 6.4 8.0 0.00 0.00 0.00 39 1000.8
20260504170229 23 225 4.8 4.8 0.00 0.00 0.00 38 1000.9
20260504160148 21 258 1.6 1.6 0.00 0.00 0.00 47 1002.0
20260504151115 19 251 0.0 1.6 0.00 0.00 0.00 57 1002.7
20260504150613 18 184 3.2 8.0 0.00 0.00 0.00 59 1002.9
20260504150110 18 280 8.0 11.3 0.00 0.00 0.00 58 1002.9
20260504141038 16 205 3.2 3.2 0.00 0.00 0.00 63 1003.4
20260504140535 16 262 1.6 3.2 0.00 0.00 0.00 65 1003.2
20260504130459 14 317 3.2 3.2 0.00 0.00 0.00 70 1003.5
20260504110346 8 293 1.6 1.6 0.00 0.00 0.00 86 1003.6
20260504100304 8 229 0.0 0.0 0.00 0.00 0.00 86 1004.0
20260504081657 9 313 0.0 0.0 0.00 0.00 0.00 81 1004.5
20260504081153 9 199 1.6 1.6 0.00 0.00 0.00 81 1004.7
20260504080650 9 188 0.0 0.0 0.00 0.00 0.00 80 1004.4
20260504080146 9 269 0.0 0.0 0.00 0.00 0.00 80 1004.6
20260504070114 10 220 1.6 3.2 0.00 0.00 0.00 77 1005.4